C/2020 R2 ( PanSTARRS )

Japanese version
Home page
Updated on November 3, 2020

---------------------------------------------------------------------

* Profile

Discovery Date September 12, 2020
Magnitude 20.5 mag
Discoverer Pan-STARRS2 1.8-m Ritchey-Chretien reflector (Haleakala)

* Orbital Elements

Epoch 2022 Mar. 2.0 TT = JDT 2459640.5
T 2022 Feb. 24.53517 TT                                 Rudenko
q   4.6921303            (2000.0)            P               Q
z  +0.0025093      Peri.  211.73425     +0.73914182     -0.64043300
 +/-0.0000305      Node   195.09556     +0.64974031     +0.59633913
e   0.9882259      Incl.   53.22506     -0.17750182     -0.48396820
From 76 observations 2020 Aug. 18-Oct. 23, mean residual 0".3.

* Magnitudes Graph

        m1 = 8.5 + 5 log d + 10.0 log r

---------------------------------------------------------------------

The orbital elements are published on M.P.E.C. 2020-U270.
The magnitudes graphs are made with Comet for Windows.

---------------------------------------------------------------------

Copyright(C) Seiichi Yoshida (comet@aerith.net). All rights reserved.